Jogging de Banneux
Jogging de Banneux 07/06/2015 - 10,7 km
Mise à jour le : 07/06/2015 à 18:41
Classement définitif, aucune correction possible
Place Nom Prénom Dossard Temps Vitesse Allure Place. Cat. Catégorie
1 LEFEBVRE LUDWIG 543 42:15 15,19 3:56 1 Séniors
2 DUQUENNE SAMUEL 252 43:06 14,89 4:01 2 Séniors
3 BOSARD STEPHANE 827 43:07 14,89 4:01 3 Séniors
4 WIERTZ XAVIER 780 43:18 14,83 4:02 4 Séniors
5 HERZET FREDERICK 4 44:04 14,57 4:07 5 Séniors
6 KAILS REMY 505 45:42 14,04 4:16 6 Séniors
7 CLERDENT NICOLAS 161 45:51 14,00 4:17 7 Séniors
8 JANSEN BENOIT 812 46:06 13,92 4:18 8 Séniors
9 OLIVIER LAURENT 861 46:53 13,69 4:22 9 Séniors
10 WOOLF ALAN 695 47:20 13,56 4:25 1 Vétérans 2
11 CANNARSA MICHEL 845 47:21 13,56 4:25 1 Vétérans 1
12 LORQUET JEAN - MARC 10 47:49 13,42 4:28 2 Vétérans 2
13 KEIL ALAIN 506 48:17 13,29 4:30 2 Vétérans 1
14 LEFEBVRE LUC 542 48:48 13,15 4:33 3 Vétérans 2
15 LONGTON GILLES 849 49:02 13,09 4:35 10 Séniors
16 DELANDSHEERE LIONEL 816 49:03 13,09 4:35 11 Séniors
17 HACKENS YANNICK 426 49:05 13,08 4:35 3 Vétérans 1
18 OURY PATRICE 530 49:24 12,99 4:37 4 Vétérans 1
19 STICCA TIBERIO 444 49:59 12,84 4:40 12 Séniors
20 CIOMEK FREDERIC 830 50:09 12,80 4:41 5 Vétérans 1
21 BUSCH TIMOTHY 129 50:12 12,79 4:41 1 Espoirs Garçons
22 JOURDAN GUY 503 50:13 12,78 4:41 13 Séniors
23 JURDAN ERIC 808 50:25 12,73 4:42 6 Vétérans 1
24 LECROMPE ROMAIN 850 50:33 12,70 4:43 14 Séniors
25 FETTWEIS VERONIQUE 2 50:46 12,64 4:44 1 Dames
26 GEMIN BENOIT 803 50:49 12,63 4:45 15 Séniors
27 SCHRGNEMACHERS QUENTIN 828 50:54 12,61 4:45 16 Séniors
28 BROUWIER PIERRE 121 51:10 12,55 4:46 1 Vétérans 3
29 DESSOUROUX JEAN 227 51:15 12,52 4:47 2 Vétérans 3
30 LEJEUNE PHILIPPE 854 51:42 12,41 4:49 7 Vétérans 1
31 GERARD MICHAEL 829 51:55 12,36 4:51 17 Séniors
32 GODELAINE AUDREY 811 51:56 12,36 4:51 2 Dames
33 GODELAINE STEPHANE 323 51:58 12,35 4:51 18 Séniors
34 GATEZ SEBASTIEN 306 51:59 12,35 4:51 8 Vétérans 1
35 JASPAR CHRISTIAN 383 52:11 12,30 4:52 3 Vétérans 3
36 VISCONTI SALVATORE 809 52:14 12,29 4:52 19 Séniors
37 DELOYER THOMAS 202 52:42 12,18 4:55 2 Espoirs Garçons
38 GOMZE MICHEL 272 52:42 12,18 4:55 9 Vétérans 1
39 KEIL YVES 509 52:53 12,14 4:56 10 Vétérans 1
40 DE RIDDER OLIVIER 174 53:16 12,05 4:58 20 Séniors
41 DELOYER LAURENT 201 53:31 11,99 5:00 21 Séniors
42 PESSER ALINE 11 53:56 11,90 5:02 1 Ainées 1
43 BEUKEN DIDIER 81 53:57 11,90 5:02 4 Vétérans 2
44 POHL DIDIER 702 53:58 11,89 5:02 5 Vétérans 2
45 FERON THIERRY 865 54:38 11,75 5:06 22 Séniors
46 NOEL TONY 805 54:40 11,74 5:06 23 Séniors
47 SMETS ROBIN 815 54:41 11,74 5:06 3 Espoirs Garçons
48 BONAVENTURE QUENTIN 813 54:44 11,73 5:06 4 Espoirs Garçons
49 HUTSCHEMACKERS BERNARD 369 54:57 11,68 5:08 11 Vétérans 1
50 FALLICA VITO 807 55:02 11,66 5:08 4 Vétérans 3
51 HERMANS MARC 814 55:04 11,66 5:08 6 Vétérans 2
52 CANALES ALBERTO 130 55:42 11,53 5:12 5 Vétérans 3
53 WEUSTEN CEDRIC 778 55:57 11,47 5:13 24 Séniors
54 ROMPEN MARGAUX 727 56:01 11,46 5:14 1 Espoirs Filles
55 BURNIA OLIVIER 848 56:21 11,39 5:16 25 Séniors
56 DEMOULIN ANNE-SOPHIE 251 57:12 11,22 5:20 2 Ainées 1
57 HURLET LUCIEN 724 57:43 11,12 5:23 7 Vétérans 2
58 MENNICKEN ROGER 494 57:43 11,12 5:23 8 Vétérans 2
59 MARCHAL XAVIER 826 57:45 11,12 5:23 12 Vétérans 1
60 SOMJA VICTOR 835 57:49 11,10 5:24 9 Vétérans 2
61 CORMAN MICHAEL 152 58:04 11,06 5:25 26 Séniors
62 TASSET CHRISTOPHE 625 58:30 10,97 5:28 27 Séniors
63 STAINIER ERIC 831 58:42 10,94 5:29 10 Vétérans 2
64 HENNES PHILIPPE 181 59:14 10,84 5:32 13 Vétérans 1
65 FORET MICHAEL 802 59:27 10,80 5:33 28 Séniors
66 GRUSELIN STEVE 329 59:31 10,78 5:33 29 Séniors
67 FISCHER RAPHAEL 342 59:31 10,78 5:33 30 Séniors
68 GIRARDEAU STEPHANIE 804 59:42 10,75 5:34 3 Dames
69 DENOEL XAVIER 843 59:48 10,73 5:35 31 Séniors
70 ERNST ANDRE 265 59:51 10,73 5:35 11 Vétérans 2
71 CHARLIER MANUEL 859 59:58 10,71 5:36 14 Vétérans 1
72 VAN HAREN JEAN CHARLES 870 1:00:22 10,63 5:38 32 Séniors
73 GIUST OLIVIER 378 1:00:25 10,63 5:38 33 Séniors
74 BAUNE JEREMY 851 1:00:30 10,61 5:39 34 Séniors
75 ISERENTANT CARINE 483 1:00:33 10,60 5:39 1 Ainées 2
76 MARECHAL GUERRY 866 1:00:46 10,56 5:40 35 Séniors
77 SCAILLET GEOFFREY 832 1:00:52 10,55 5:41 5 Espoirs Garçons
78 OVIDIO MICHAEL 806 1:00:52 10,55 5:41 15 Vétérans 1
79 CORNIL ALBIN 820 1:01:05 10,51 5:42 36 Séniors
80 LOUIS MAXIME 819 1:01:05 10,51 5:42 37 Séniors
81 BOLDO DAVID 864 1:01:18 10,47 5:43 16 Vétérans 1
82 LERUTH VINCENT 858 1:01:22 10,46 5:44 6 Espoirs Garçons
83 KONINGS NATHALIE 526 1:01:48 10,39 5:46 2 Ainées 2
84 VANDER HEYDEN CLAIRE 603 1:02:10 10,33 5:48 3 Ainées 2
85 CHAINEUX MARC 855 1:02:21 10,30 5:49 17 Vétérans 1
86 BADENBERG BERNARD 53 1:02:22 10,29 5:49 18 Vétérans 1
87 DEWIL JEAN 853 1:02:34 10,26 5:50 12 Vétérans 2
88 BONIVER FRÉDÉRIC 825 1:02:43 10,24 5:51 19 Vétérans 1
89 BREUER CLAIRE 863 1:03:18 10,14 5:55 3 Ainées 1
90 PONSARD GUY 551 1:03:18 10,14 5:55 13 Vétérans 2
91 EL BALDI FATIHA 256 1:03:54 10,05 5:58 4 Ainées 1
92 COUNOTTE XAVIER 791 1:03:54 10,05 5:58 38 Séniors
93 MANGOLOPA DAVID 599 1:04:03 10,02 5:59 14 Vétérans 2
94 MAWET NATHALIE 491 1:04:46 9,91 6:03 4 Ainées 2
95 BRANCE JOSE 103 1:04:57 9,88 6:04 20 Vétérans 1
96 DUVIVIER MARC 253 1:04:59 9,88 6:04 15 Vétérans 2
97 FRANSSEN SYLVIE 867 1:05:04 9,87 6:04 5 Ainées 1
98 CUPERS EVELYNE 191 1:05:07 9,86 6:05 6 Ainées 1
99 GASPARD DAVID 868 1:05:17 9,83 6:06 39 Séniors
100 HERZE MARC 842 1:05:20 9,82 6:06 40 Séniors
101 LORQUET SYLVIE 741 1:05:40 9,78 6:08 5 Ainées 2
102 BASTIN PAUL 61 1:05:41 9,77 6:08 6 Vétérans 3
103 ERNST BERNARD 264 1:05:51 9,75 6:09 21 Vétérans 1
104 VANAUBEL MARILYN 765 1:06:02 9,72 6:10 4 Dames
105 STASSEN BENJAMIN 869 1:06:11 9,70 6:11 41 Séniors
106 BRENNENRAEDTS FREDERIC 818 1:06:22 9,67 6:12 42 Séniors
107 HERMAN SYLVIANE 353 1:06:27 9,66 6:12 6 Ainées 2
108 DETRAUX ROLAND 800 1:06:28 9,66 6:12 16 Vétérans 2
109 HAUBRECHTS VALÉRIE 824 1:06:51 9,60 6:14 7 Ainées 2
110 BAGUETTE FRANCIS 54 1:06:53 9,60 6:15 22 Vétérans 1
111 DAHM JOSE 164 1:08:33 9,36 6:24 1 Vétérans 4
112 WEBER GILBERTE 682 1:09:29 9,24 6:29 1 Ainées 3
113 GROSJEAN ALAIN 420 1:09:41 9,21 6:30 17 Vétérans 2
114 LERUTH PHILIPPE 857 1:11:07 9,03 6:38 18 Vétérans 2
115 LAHAYE SYLVIE 847 1:11:39 8,96 6:41 7 Ainées 1
116 JENNART GEOFFREY 841 1:12:49 8,82 6:48 43 Séniors
117 STEMBERT LAETITIA 750 1:13:04 8,78 6:49 5 Dames
118 STEINBUSCH VINCENT 620 1:13:05 8,78 6:49 23 Vétérans 1
119 VIVIANI CARLO 670 1:13:05 8,78 6:49 7 Vétérans 3
120 DELANDSHEERE GAELLE 836 1:15:02 8,55 7:00 6 Dames
121 WOLF LEON 846 1:15:09 8,54 7:01 24 Vétérans 1
122 CREMERS CHRISTOPHE 26 1:15:16 8,53 7:02 25 Vétérans 1
123 SIMONIS MATHIEU 608 1:16:34 8,38 7:09 44 Séniors
124 MAQUINAY FELICIEN 475 1:17:42 8,26 7:15 19 Vétérans 2
125 JONLET LIONEL 13 1:17:42 8,26 7:15 45 Séniors
126 INCONNU INCONNU 840 1:18:36 8,17 0
127 CALIFICE HUBERTE 128 1:19:58 8,03 7:28 2 Ainées 3
128 MECZKOWSKI STAN 801 1:19:58 8,03 7:28 2 Vétérans 4
129 MUYTERS VALERIE 639 1:21:57 7,83 7:39 7 Dames
130 GLAZEMAKERS ANNE-MARIE 387 1:21:57 7,83 7:39 8 Dames
131 DEPREITERE HILDEGARD 221 1:24:07 7,63 7:51 3 Ainées 3
132 FRISSCHEN JACQUES 298 1:26:05 7,46 8:02 3 Vétérans 4
133 CORDONNIER AURELIE 817 1:27:21 7,35 8:09 9 Dames
134 MEULI SANDRINE 822 2:00:34 5,32 11:16 8 Ainées 1
135 MENGONI LUIGI 821 2:00:34 5,32 11:16 26 Vétérans 1